FW1302 Weather Reports


time (UTC)temp
F
wind
direction
speed
knots
gust
knots
rain 1hr
in
rain 24hr
in
rain mn
in
humidity
%
barometer
mb
20260509175720 61 45 4.3 4.3 0.00 0.00 0.00 68 1030.5
20260509174817 62 45 3.5 3.5 0.00 0.00 0.00 64 1030.6
20260509173818 62 45 3.5 4.3 0.00 0.00 0.00 64 1030.8
20260509172818 61 45 1.7 2.6 0.00 0.00 0.00 67 1030.8
20260509171819 59 45 1.7 2.6 0.00 0.00 0.00 67 1031.1
20260509164818 58 45 3.5 3.5 0.00 0.00 0.00 74 1031.4
20260509162818 56 45 3.5 3.5 0.00 0.00 0.00 74 1031.8
20260509161817 56 45 4.3 5.2 0.00 0.00 0.00 75 1031.8
20260509160916 56 45 5.2 5.2 0.00 0.00 0.00 73 1031.9
20260509155917 59 45 3.5 4.3 0.00 0.00 0.00 69 1032.0
20260509153918 59 67 0.9 0.9 0.00 0.00 0.00 68 1032.3
20260509152917 59 67 1.7 1.7 0.00 0.00 0.00 71 1032.3
20260509151919 57 67 0.0 0.0 0.00 0.00 0.00 73 1032.4
20260509151017 57 67 0.0 0.0 0.00 0.00 0.00 74 1032.5
20260509150116 57 67 0.0 0.0 0.00 0.00 0.00 74 1032.4
20260509145118 56 67 0.9 1.7 0.00 0.00 0.00 76 1032.4
20260509144117 55 67 0.9 0.9 0.00 0.00 0.00 79 1032.4
20260509143117 54 67 0.9 0.9 0.00 0.00 0.00 82 1032.6
20260509141118 51 67 0.0 0.0 0.00 0.00 0.00 89 1032.5
20260509141017 51 67 0.0 0.0 0.00 0.00 0.00 90 1032.5
20260509140017 50 67 0.0 0.0 0.00 0.00 0.00 91 1032.7
20260509135116 49 67 0.0 0.0 0.00 0.00 0.00 90 1032.5
20260509134117 49 67 0.9 1.7 0.00 0.00 0.00 89 1032.5
20260509133116 48 67 1.7 1.7 0.00 0.00 0.00 89 1032.5
20260509132117 48 67 0.9 1.7 0.00 0.00 0.00 90 1032.5
20260509130117 48 67 0.0 0.0 0.00 0.00 0.00 90 1032.6
20260509125118 48 67 0.0 0.9 0.00 0.00 0.00 90 1032.4
20260509123118 48 67 0.0 0.9 0.00 0.00 0.00 89 1032.2
20260509122217 48 67 0.0 0.9 0.00 0.00 0.00 89 1032.1
20260509121217 49 67 0.0 0.0 0.00 0.00 0.00 89 1032.1
20260509120218 49 67 0.0 0.0 0.00 0.00 0.00 89 1032.0
20260509113318 49 67 0.0 0.0 0.00 0.00 0.00 87 1032.2
20260509113216 49 67 0.0 0.0 0.00 0.00 0.00 87 1032.2
20260509112216 50 67 0.0 0.0 0.00 0.00 0.00 86 1032.2
20260509111219 50 67 0.0 0.0 0.00 0.00 0.00 85 1032.3
20260509110316 50 67 0.0 0.0 0.00 0.00 0.00 84 1032.2
20260509110217 50 67 0.0 0.0 0.00 0.00 0.00 84 1032.3
20260509105218 51 67 0.0 0.0 0.00 0.00 0.00 84 1032.3
20260509105118 51 67 0.0 0.0 0.00 0.00 0.00 84 1032.3
20260509105017 51 67 0.0 0.0 0.00 0.00 0.00 84 1032.3
20260509104018 51 67 0.9 1.7 0.00 0.00 0.00 84 1032.3
20260509103117 51 67 0.9 1.7 0.00 0.00 0.00 84 1032.2
20260509102117 51 67 0.9 1.7 0.00 0.00 0.00 83 1032.3
20260509101216 52 67 0.0 0.0 0.00 0.00 0.00 83 1032.3
20260509100218 52 67 0.0 0.0 0.00 0.00 0.00 82 1032.4
20260509095219 53 67 0.0 0.0 0.00 0.00 0.00 80 1032.4
20260509094317 53 67 0.9 1.7 0.00 0.00 0.00 80 1032.4
20260509093318 53 67 0.0 0.9 0.00 0.00 0.00 80 1032.4
20260509091416 54 360 0.0 0.0 0.00 0.00 0.00 79 1032.5
20260509090516 54 360 0.0 0.0 0.00 0.00 0.00 79 1032.5
20260509085518 55 360 0.0 0.0 0.00 0.00 0.00 79 1032.5
20260509084518 54 360 0.0 0.0 0.00 0.00 0.00 79 1032.7
20260509082618 55 360 0.0 0.0 0.00 0.00 0.00 78 1032.9
20260509081619 55 360 0.0 0.0 0.00 0.00 0.00 77 1032.9
20260509075717 55 360 0.0 0.0 0.00 0.00 0.00 77 1033.1
20260509074719 55 360 0.0 0.0 0.00 0.00 0.00 76 1032.9
20260509073718 56 360 0.0 0.0 0.00 0.00 0.00 75 1033.1
20260509071818 57 360 0.0 0.0 0.00 0.00 0.00 73 1032.9
20260509070818 57 360 0.0 0.0 0.00 0.00 0.00 72 1032.9
20260509064913 59 360 0.0 0.0 0.00 0.00 0.00 68 1032.9
20260509063913 59 360 0.0 0.0 0.00 0.00 0.00 67 1032.9
20260509062912 59 360 0.0 0.0 0.00 0.00 0.00 66 1032.9
20260509062010 59 360 0.0 0.0 0.00 0.00 0.00 67 1033.0
20260509060012 60 360 0.0 0.0 0.00 0.00 0.00 64 1032.9
20260509055110 60 360 0.0 0.0 0.00 0.00 0.00 64 1032.9
20260509053112 60 360 0.0 0.0 0.00 0.00 0.00 65 1032.9
20260509052113 60 360 0.0 0.0 0.00 0.00 0.00 66 1032.9
20260509051112 61 360 3.5 3.5 0.00 0.00 0.00 62 1032.9
20260509050211 62 327 1.7 3.5 0.00 0.00 0.00 59 1032.7
20260509045212 62 212 1.7 3.5 0.00 0.00 0.00 59 1032.7
20260509044213 62 217 2.6 4.3 0.00 0.00 0.00 58 1032.6
20260509044115 62 202 0.9 4.3 0.00 0.00 0.00 59 1032.7
20260509043211 62 214 1.7 4.3 0.00 0.00 0.00 59 1032.5
20260509042213 62 207 1.7 6.1 0.00 0.00 0.00 58 1032.4
20260509041212 62 206 1.7 6.1 0.00 0.00 0.00 58 1032.4
20260509040213 62 206 1.7 6.1 0.00 0.00 0.00 58 1032.2
20260509040113 62 208 2.6 5.2 0.00 0.00 0.00 58 1032.2
20260509035211 62 215 3.5 5.2 0.00 0.00 0.00 57 1032.1
20260509034210 62 225 3.5 5.2 0.00 0.00 0.00 57 1031.9
20260509033212 63 225 3.5 4.3 0.00 0.00 0.00 57 1031.8
20260509031310 63 225 6.1 7.8 0.00 0.00 0.00 55 1031.5
20260509030313 64 225 6.1 8.7 0.00 0.00 0.00 54 1031.5
20260509025312 64 225 7.0 8.7 0.00 0.00 0.00 53 1031.3
20260509025210 64 225 7.0 9.6 0.00 0.00 0.00 52 1031.3
20260509023213 65 229 8.7 11.3 0.00 0.00 0.00 50 1031.0
20260509022311 65 225 11.3 14.8 0.00 0.00 0.00 49 1031.1
20260509022210 65 225 7.0 9.6 0.00 0.00 0.00 50 1031.1
20260509021210 66 220 9.6 13.0 0.00 0.00 0.00 49 1031.1
20260509015213 65 222 9.6 12.2 0.00 0.00 0.00 49 1031.1
20260509014212 66 225 11.3 13.9 0.00 0.00 0.00 48 1030.9
20260509013310 66 224 11.3 13.9 0.00 0.00 0.00 48 1030.9
20260509012311 66 226 13.0 16.5 0.00 0.00 0.00 48 1031.1
20260509011410 66 230 13.0 20.0 0.00 0.00 0.00 47 1031.0
20260509005411 66 227 11.3 16.5 0.00 0.00 0.00 48 1031.1
20260509004412 66 226 9.6 12.2 0.00 0.00 0.00 48 1031.0
20260509003411 66 222 11.3 15.6 0.00 0.00 0.00 47 1031.1
20260509003316 66 227 13.0 19.1 0.00 0.00 0.00 47 1031.1
20260509001411 65 227 11.3 15.6 0.00 0.00 0.00 47 1031.0
20260509000412 65 222 15.6 20.0 0.00 0.00 0.00 46 1031.0
20260508234512 65 225 13.9 18.2 0.00 0.00 0.00 46 1031.0
20260508232512 65 226 11.3 15.6 0.00 0.00 0.00 44 1031.1
20260508231513 65 225 14.8 20.0 0.00 0.00 0.00 45 1031.1
20260508230511 65 222 11.3 15.6 0.00 0.00 0.00 46 1031.2
20260508225610 65 224 16.5 21.7 0.00 0.00 0.00 46 1031.1
20260508224611 64 224 13.9 18.2 0.00 0.00 0.00 46 1031.2
20260508223612 64 224 13.0 15.6 0.00 0.00 0.00 48 1031.2
20260508222611 64 227 12.2 14.8 0.00 0.00 0.00 48 1031.4
20260508221711 64 224 13.9 19.1 0.00 0.00 0.00 49 1031.3
20260508220711 64 225 12.2 16.5 0.00 0.00 0.00 49 1031.4
20260508215712 63 227 11.3 15.6 0.00 0.00 0.00 50 1031.4
20260508214712 63 221 12.2 15.6 0.00 0.00 0.00 49 1031.5
20260508213711 63 220 12.2 16.5 0.00 0.00 0.00 50 1031.3
20260508212712 63 215 11.3 15.6 0.00 0.00 0.00 51 1031.5
20260508211713 62 231 11.3 15.6 0.00 0.00 0.00 52 1031.3
20260508210710 62 228 10.4 14.8 0.00 0.00 0.00 53 1031.5
20260508205713 61 213 13.0 17.4 0.00 0.00 0.00 53 1031.5
20260508204811 61 221 13.0 17.4 0.00 0.00 0.00 52 1031.6
20260508203812 61 226 13.9 16.5 0.00 0.00 0.00 54 1031.8
20260508202814 61 222 12.2 18.2 0.00 0.00 0.00 55 1032.0
20260508201909 61 223 10.4 16.5 0.00 0.00 0.00 55 1031.8
20260508200913 60 223 10.4 13.9 0.00 0.00 0.00 56 1031.9
20260508200009 60 227 11.3 15.6 0.00 0.00 0.00 55 1031.8
20260508195010 60 232 12.2 18.2 0.00 0.00 0.00 56 1032.0
20260508194011 59 226 11.3 15.6 0.00 0.00 0.00 57 1032.1
20260508192111 59 219 13.0 20.0 0.00 0.00 0.00 58 1032.1
20260508190212 59 228 11.3 18.2 0.00 0.00 0.00 59 1032.1
20260508185211 58 217 13.9 20.9 0.00 0.00 0.00 59 1032.1
20260508183212 58 220 11.3 17.4 0.00 0.00 0.00 61 1032.1
20260508182311 57 219 11.3 17.4 0.00 0.00 0.00 62 1032.0